AAL3098 KMIA-TVSA

Flight info

Callsign AAL3098
Flight time 3h 4m
Altitude 37000
Route KLADA2 BITAC DCT RUMFO DCT JUELE DCT PTA DCT MELLA DCT CAVTU DCT GEECE DCT MIXUV DCT GUDAS DCT KESBI DCT UKREK
Aircraft B738/M-SDE2E3FGHIRWXY/LB1

Departure

Time 2026-05-09 00:23
Airport Miami International Airport (KMIA)

Arrival

Time 2026-05-09 03:27
Airport Argyle International Airport (TVSA)
Time Latitude Longitude Altitude Speed Heading
2026-05-08 23:52 25.79521 -80.28471 18 ft 0 kts 95°
2026-05-09 00:11 25.79522 -80.28478 18 ft 2 kts 95°
2026-05-09 00:11 25.79523 -80.28496 18 ft 2 kts 95°
2026-05-09 00:11 25.79524 -80.28514 18 ft 2 kts 94°
2026-05-09 00:12 25.79525 -80.28533 18 ft 2 kts 91°
2026-05-09 00:12 25.79526 -80.28551 18 ft 2 kts 96°
2026-05-09 00:12 25.79526 -80.28570 18 ft 2 kts 50°
2026-05-09 00:12 25.79515 -80.28576 21 ft 1 kts 352°
2026-05-09 00:13 25.79514 -80.28576 21 ft 0 kts 352°
2026-05-09 00:16 25.79515 -80.28575 21 ft 1 kts 356°
2026-05-09 00:16 25.79543 -80.28577 20 ft 6 kts 358°
2026-05-09 00:16 25.79587 -80.28599 19 ft 8 kts 313°
2026-05-09 00:17 25.79592 -80.28656 19 ft 8 kts 254°
2026-05-09 00:17 25.79574 -80.28719 21 ft 10 kts 258°
2026-05-09 00:17 25.79572 -80.28731 21 ft 3 kts 258°
2026-05-09 00:17 25.79566 -80.28770 19 ft 7 kts 264°
2026-05-09 00:18 25.79565 -80.28842 18 ft 11 kts 263°
2026-05-09 00:18 25.79515 -80.28910 16 ft 13 kts 220°
2026-05-09 00:18 25.79500 -80.28941 17 ft 2 kts 265°
2026-05-09 00:18 25.79512 -80.28986 16 ft 10 kts 305°
2026-05-09 00:19 25.79566 -80.29087 17 ft 21 kts 299°
2026-05-09 00:19 25.79653 -80.29260 18 ft 30 kts 299°
2026-05-09 00:19 25.79766 -80.29478 17 ft 34 kts 298°
2026-05-09 00:19 25.79878 -80.29701 13 ft 30 kts 298°
2026-05-09 00:20 25.79890 -80.29876 13 ft 18 kts 275°
2026-05-09 00:20 25.79912 -80.29988 13 ft 13 kts 282°
2026-05-09 00:20 25.79926 -80.30042 14 ft 0 kts 285°
2026-05-09 00:21 25.79933 -80.30070 13 ft 7 kts 285°
2026-05-09 00:21 25.79951 -80.30138 17 ft 12 kts 287°
2026-05-09 00:21 25.79958 -80.30184 16 ft 0 kts 258°
2026-05-09 00:21 25.79951 -80.30195 16 ft 4 kts 235°
2026-05-09 00:22 25.79927 -80.30215 16 ft 3 kts 180°
2026-05-09 00:22 25.79913 -80.30194 15 ft 5 kts 104°
2026-05-09 00:22 25.79892 -80.30151 15 ft 8 kts 117°
2026-05-09 00:22 25.79890 -80.30147 14 ft 0 kts 119°
2026-05-09 00:23 25.79865 -80.30097 14 ft 36 kts 119°
2026-05-09 00:23 25.79598 -80.29581 16 ft 115 kts 120°
2026-05-09 00:23 25.79084 -80.28595 33 ft 178 kts 120°
2026-05-09 00:23 25.78417 -80.27311 647 ft 196 kts 121°
2026-05-09 00:24 25.77737 -80.25953 1248 ft 215 kts 112°
2026-05-09 00:24 25.77389 -80.24344 1520 ft 214 kts 98°
2026-05-09 00:24 25.77133 -80.22697 1561 ft 221 kts 108°
2026-05-09 00:24 25.76626 -80.21100 1580 ft 210 kts 111°
2026-05-09 00:25 25.76100 -80.19639 1647 ft 204 kts 113°
2026-05-09 00:25 25.75546 -80.18131 1931 ft 221 kts 112°
2026-05-09 00:25 25.74936 -80.16477 2195 ft 240 kts 112°
2026-05-09 00:25 25.74281 -80.14701 2414 ft 257 kts 112°
2026-05-09 00:26 25.73594 -80.12835 2660 ft 262 kts 111°
2026-05-09 00:26 25.72920 -80.11012 3216 ft 255 kts 111°
2026-05-09 00:26 25.72239 -80.09161 3819 ft 263 kts 111°
2026-05-09 00:26 25.71536 -80.07257 4446 ft 270 kts 111°
2026-05-09 00:27 25.70824 -80.05322 5059 ft 276 kts 111°
2026-05-09 00:27 25.70086 -80.03321 5685 ft 279 kts 111°
2026-05-09 00:27 25.69359 -80.01353 6271 ft 279 kts 112°
2026-05-09 00:27 25.68622 -79.99357 6865 ft 280 kts 112°
2026-05-09 00:28 25.67885 -79.97364 7452 ft 280 kts 113°
2026-05-09 00:28 25.67145 -79.95364 8048 ft 281 kts 114°
2026-05-09 00:28 25.66398 -79.93345 8652 ft 282 kts 114°
2026-05-09 00:28 25.65656 -79.91339 9270 ft 285 kts 114°
2026-05-09 00:29 25.64908 -79.89321 9898 ft 288 kts 115°
2026-05-09 00:29 25.64152 -79.87279 10469 ft 291 kts 115°
2026-05-09 00:29 25.63372 -79.85177 11048 ft 294 kts 114°
2026-05-09 00:29 25.62598 -79.83088 11629 ft 297 kts 114°
2026-05-09 00:30 25.61815 -79.80978 12226 ft 299 kts 114°
2026-05-09 00:30 25.61021 -79.78837 12751 ft 304 kts 114°
2026-05-09 00:30 25.60208 -79.76647 13256 ft 309 kts 114°
2026-05-09 00:30 25.59378 -79.74414 13783 ft 315 kts 114°
2026-05-09 00:31 25.58540 -79.72160 14224 ft 320 kts 114°
2026-05-09 00:31 25.57687 -79.69866 14695 ft 324 kts 114°
2026-05-09 00:31 25.56824 -79.67547 15165 ft 329 kts 114°
2026-05-09 00:31 25.55954 -79.65207 15638 ft 333 kts 114°
2026-05-09 00:32 25.55067 -79.62827 16117 ft 337 kts 114°
2026-05-09 00:32 25.54165 -79.60406 16605 ft 341 kts 114°
2026-05-09 00:32 25.53256 -79.57968 17103 ft 345 kts 114°
2026-05-09 00:32 25.52341 -79.55518 17560 ft 350 kts 114°
2026-05-09 00:33 25.51406 -79.53015 17939 ft 357 kts 114°
2026-05-09 00:33 25.50440 -79.50428 18333 ft 364 kts 114°
2026-05-09 00:33 25.49471 -79.47839 18673 ft 370 kts 114°
2026-05-09 00:33 25.48471 -79.45166 19019 ft 376 kts 114°
2026-05-09 00:34 25.47473 -79.42500 19363 ft 381 kts 114°
2026-05-09 00:34 25.46462 -79.39799 19712 ft 387 kts 114°
2026-05-09 00:34 25.45411 -79.36995 20077 ft 392 kts 114°
2026-05-09 00:34 25.44360 -79.34193 20424 ft 397 kts 114°
2026-05-09 00:35 25.43294 -79.31352 20785 ft 402 kts 114°
2026-05-09 00:35 25.42218 -79.28488 21148 ft 406 kts 114°
2026-05-09 00:35 25.41132 -79.25598 21514 ft 410 kts 114°
2026-05-09 00:35 25.40031 -79.22670 21882 ft 414 kts 114°
2026-05-09 00:36 25.38916 -79.19709 22148 ft 421 kts 114°
2026-05-09 00:36 25.37794 -79.16729 22405 ft 427 kts 114°
2026-05-09 00:36 25.36642 -79.13672 22664 ft 433 kts 114°
2026-05-09 00:36 25.35476 -79.10582 22932 ft 438 kts 114°
2026-05-09 00:37 25.34297 -79.07460 23199 ft 443 kts 114°
2026-05-09 00:37 25.33106 -79.04306 23463 ft 448 kts 114°
2026-05-09 00:37 25.31893 -79.01097 23703 ft 453 kts 114°
2026-05-09 00:37 25.30669 -78.97863 23749 ft 462 kts 114°
2026-05-09 00:38 25.29427 -78.94584 23713 ft 473 kts 114°
2026-05-09 00:38 25.28145 -78.91202 23711 ft 482 kts 114°
2026-05-09 00:38 25.26849 -78.87786 23710 ft 489 kts 114°
2026-05-09 00:38 25.25499 -78.84227 23710 ft 496 kts 114°
2026-05-09 00:39 25.24155 -78.80691 23707 ft 503 kts 114°
2026-05-09 00:39 25.22794 -78.77109 23706 ft 508 kts 114°
2026-05-09 00:39 25.21424 -78.73509 23703 ft 512 kts 114°
2026-05-09 00:39 25.20057 -78.69919 23841 ft 510 kts 114°
2026-05-09 00:40 25.18693 -78.66340 24039 ft 509 kts 114°
2026-05-09 00:40 25.17312 -78.62717 24262 ft 508 kts 114°
2026-05-09 00:40 25.15941 -78.59126 24485 ft 507 kts 114°
2026-05-09 00:41 25.13203 -78.51966 24924 ft 507 kts 114°
2026-05-09 00:41 25.11853 -78.48441 25142 ft 506 kts 114°
2026-05-09 00:41 25.10466 -78.44821 25373 ft 506 kts 114°
2026-05-09 00:41 25.09110 -78.41285 25592 ft 506 kts 114°
2026-05-09 00:42 25.07726 -78.37680 25828 ft 505 kts 114°
2026-05-09 00:42 25.06367 -78.34143 26068 ft 505 kts 114°
2026-05-09 00:42 25.05000 -78.30587 26278 ft 505 kts 114°
2026-05-09 00:42 25.03622 -78.27007 26521 ft 505 kts 114°
2026-05-09 00:43 25.02257 -78.23461 26763 ft 505 kts 114°
2026-05-09 00:43 25.00884 -78.19899 27000 ft 504 kts 114°
2026-05-09 00:43 24.99505 -78.16324 27242 ft 504 kts 114°
2026-05-09 00:43 24.98137 -78.12781 27493 ft 504 kts 114°
2026-05-09 00:44 24.96758 -78.09215 27738 ft 504 kts 114°
2026-05-09 00:44 24.95403 -78.05711 27969 ft 504 kts 114°
2026-05-09 00:44 24.94012 -78.02116 28229 ft 504 kts 114°
2026-05-09 00:44 24.92656 -77.98616 28480 ft 504 kts 114°
2026-05-09 00:45 24.91275 -77.95053 28731 ft 504 kts 114°
2026-05-09 00:45 24.89901 -77.91512 28986 ft 504 kts 114°
2026-05-09 00:45 24.88552 -77.88038 29237 ft 504 kts 114°
2026-05-09 00:45 24.87147 -77.84424 29500 ft 503 kts 114°
2026-05-09 00:46 24.85768 -77.80878 29759 ft 503 kts 114°
2026-05-09 00:46 24.84389 -77.77336 30023 ft 503 kts 114°
2026-05-09 00:46 24.81614 -77.70217 29963 ft 515 kts 114°
2026-05-09 00:47 24.78783 -77.62965 30228 ft 517 kts 114°
2026-05-09 00:47 24.77368 -77.59342 30450 ft 515 kts 114°
2026-05-09 00:47 24.75939 -77.55710 30677 ft 514 kts 115°
2026-05-09 00:48 24.74286 -77.52253 30902 ft 512 kts 124°
2026-05-09 00:48 24.72243 -77.49045 31136 ft 509 kts 128°
2026-05-09 00:48 24.70134 -77.45919 31359 ft 508 kts 128°
2026-05-09 00:48 24.68041 -77.42862 31598 ft 506 kts 128°
2026-05-09 00:49 24.65932 -77.39776 31825 ft 505 kts 128°
2026-05-09 00:49 24.63831 -77.36681 32066 ft 504 kts 128°
2026-05-09 00:49 24.61752 -77.33593 32303 ft 503 kts 128°
2026-05-09 00:49 24.59686 -77.30509 32542 ft 502 kts 128°
2026-05-09 00:50 24.57616 -77.27408 32779 ft 500 kts 128°
2026-05-09 00:50 24.55565 -77.24333 33032 ft 499 kts 128°
2026-05-09 00:50 24.53517 -77.21261 33289 ft 498 kts 128°
2026-05-09 00:50 24.51476 -77.18204 33520 ft 497 kts 128°
2026-05-09 00:51 24.49444 -77.15164 33775 ft 495 kts 128°
2026-05-09 00:51 24.47421 -77.12139 34025 ft 494 kts 128°
2026-05-09 00:51 24.45391 -77.09108 34241 ft 492 kts 128°
2026-05-09 00:51 24.43341 -77.06047 34469 ft 491 kts 128°
2026-05-09 00:52 24.41350 -77.03078 34687 ft 489 kts 128°
2026-05-09 00:52 24.39339 -77.00081 34911 ft 488 kts 128°
2026-05-09 00:52 24.37331 -76.97090 35134 ft 485 kts 128°
2026-05-09 00:52 24.35343 -76.94129 35360 ft 482 kts 128°
2026-05-09 00:53 24.33358 -76.91176 35587 ft 479 kts 128°
2026-05-09 00:53 24.31390 -76.88250 35816 ft 475 kts 128°
2026-05-09 00:53 24.29437 -76.85348 36044 ft 472 kts 128°
2026-05-09 00:53 24.27515 -76.82493 36290 ft 469 kts 128°
2026-05-09 00:54 24.25570 -76.79605 36496 ft 465 kts 128°
2026-05-09 00:54 24.23650 -76.76756 36747 ft 462 kts 128°
2026-05-09 00:54 24.21771 -76.73971 36983 ft 458 kts 128°
2026-05-09 00:54 24.19874 -76.71161 37006 ft 460 kts 128°
2026-05-09 00:55 24.16054 -76.65508 37022 ft 464 kts 128°
2026-05-09 00:55 24.12201 -76.59811 37035 ft 468 kts 128°
2026-05-09 00:56 24.08302 -76.54053 37033 ft 473 kts 128°
2026-05-09 00:56 24.04363 -76.48240 37030 ft 477 kts 128°
2026-05-09 00:57 24.00388 -76.42383 37027 ft 481 kts 128°
2026-05-09 00:57 23.96411 -76.36529 37032 ft 485 kts 128°
2026-05-09 00:58 23.92384 -76.30608 37034 ft 488 kts 128°
2026-05-09 00:58 23.88306 -76.24619 37028 ft 492 kts 128°
2026-05-09 00:59 23.84214 -76.18617 37029 ft 494 kts 128°
2026-05-09 00:59 23.80137 -76.12645 37027 ft 495 kts 128°
2026-05-09 01:00 23.76006 -76.06599 37025 ft 496 kts 127°
2026-05-09 01:00 23.72303 -76.01188 37022 ft 496 kts 127°
2026-05-09 01:01 23.68152 -75.95128 37024 ft 496 kts 127°
2026-05-09 01:01 23.64021 -75.89104 37028 ft 495 kts 127°
2026-05-09 01:02 23.59931 -75.83148 37027 ft 494 kts 127°
2026-05-09 01:02 23.55812 -75.77156 37029 ft 494 kts 127°
2026-05-09 01:03 23.51688 -75.71164 37031 ft 493 kts 127°
2026-05-09 01:03 23.47634 -75.65281 37024 ft 492 kts 127°
2026-05-09 01:04 23.43542 -75.59350 37029 ft 492 kts 127°
2026-05-09 01:04 23.39411 -75.53369 37037 ft 491 kts 127°
2026-05-09 01:05 23.35301 -75.47424 37031 ft 491 kts 127°
2026-05-09 01:06 23.29158 -75.38553 37035 ft 491 kts 127°
2026-05-09 01:06 23.25022 -75.32589 37034 ft 491 kts 127°
2026-05-09 01:07 23.20940 -75.26709 37033 ft 490 kts 127°
2026-05-09 01:07 23.16826 -75.20790 37032 ft 490 kts 127°
2026-05-09 01:08 23.12719 -75.14885 37033 ft 490 kts 127°
2026-05-09 01:08 23.08619 -75.08997 37031 ft 490 kts 127°
2026-05-09 01:09 23.04666 -75.03029 37037 ft 490 kts 125°
2026-05-09 01:09 23.00777 -74.96955 37034 ft 489 kts 124°
2026-05-09 01:10 22.96885 -74.90897 37034 ft 489 kts 125°
2026-05-09 01:10 22.92966 -74.84849 37038 ft 489 kts 125°
2026-05-09 01:11 22.89045 -74.78825 37037 ft 489 kts 125°
2026-05-09 01:11 22.85160 -74.72866 37038 ft 488 kts 125°
2026-05-09 01:12 22.81232 -74.66846 37033 ft 488 kts 125°
2026-05-09 01:12 22.77309 -74.60839 37036 ft 488 kts 125°
2026-05-09 01:13 22.73399 -74.54857 37033 ft 487 kts 125°
2026-05-09 01:13 22.69511 -74.48917 37035 ft 487 kts 125°
2026-05-09 01:14 22.65581 -74.42921 37035 ft 487 kts 125°
2026-05-09 01:14 22.61661 -74.36945 37033 ft 487 kts 125°
2026-05-09 01:15 22.57765 -74.31012 37036 ft 486 kts 125°
2026-05-09 01:15 22.53842 -74.25046 37034 ft 486 kts 125°
2026-05-09 01:16 22.49926 -74.19097 37033 ft 486 kts 125°
2026-05-09 01:16 22.45997 -74.13134 37033 ft 486 kts 125°
2026-05-09 01:17 22.40137 -74.04254 37036 ft 486 kts 125°
2026-05-09 01:17 22.36214 -73.98318 37033 ft 486 kts 125°
2026-05-09 01:18 22.32293 -73.92391 37035 ft 486 kts 125°
2026-05-09 01:18 22.28352 -73.86440 37031 ft 486 kts 125°
2026-05-09 01:19 22.24453 -73.80560 37034 ft 485 kts 125°
2026-05-09 01:19 22.20498 -73.74601 37035 ft 485 kts 125°
2026-05-09 01:20 22.16586 -73.68714 37033 ft 485 kts 125°
2026-05-09 01:20 22.12654 -73.62803 37039 ft 485 kts 125°
2026-05-09 01:21 22.08709 -73.56880 37039 ft 485 kts 125°
2026-05-09 01:21 22.04794 -73.51008 37035 ft 485 kts 125°
2026-05-09 01:22 22.00859 -73.45112 37040 ft 485 kts 125°
2026-05-09 01:22 21.96912 -73.39205 37039 ft 485 kts 125°
2026-05-09 01:23 21.92978 -73.33323 37037 ft 485 kts 125°
2026-05-09 01:23 21.89011 -73.27399 37038 ft 485 kts 125°
2026-05-09 01:24 21.85090 -73.21550 37036 ft 485 kts 125°
2026-05-09 01:24 21.81112 -73.15621 37040 ft 485 kts 125°
2026-05-09 01:25 21.77193 -73.09787 37033 ft 485 kts 125°
2026-05-09 01:25 21.73224 -73.03886 37032 ft 485 kts 125°
2026-05-09 01:26 21.69268 -72.98010 37037 ft 485 kts 125°
2026-05-09 01:26 21.65309 -72.92135 37035 ft 485 kts 125°
2026-05-09 01:27 21.61377 -72.86308 37036 ft 485 kts 125°
2026-05-09 01:27 21.57411 -72.80435 37041 ft 485 kts 125°
2026-05-09 01:28 21.53440 -72.74562 37033 ft 485 kts 125°
2026-05-09 01:28 21.49472 -72.68700 37040 ft 485 kts 125°
2026-05-09 01:29 21.45502 -72.62840 37039 ft 486 kts 125°
2026-05-09 01:29 21.41556 -72.57022 37040 ft 486 kts 125°
2026-05-09 01:30 21.37572 -72.51155 37041 ft 486 kts 125°
2026-05-09 01:30 21.33586 -72.45291 37038 ft 486 kts 125°
2026-05-09 01:31 21.29636 -72.39485 37038 ft 486 kts 125°
2026-05-09 01:31 21.25643 -72.33623 37038 ft 486 kts 125°
2026-05-09 01:32 21.21647 -72.27762 37044 ft 487 kts 125°
2026-05-09 01:32 21.17658 -72.21918 37038 ft 487 kts 125°
2026-05-09 01:33 21.13650 -72.16052 37037 ft 487 kts 125°
2026-05-09 01:33 21.09648 -72.10201 37038 ft 487 kts 125°
2026-05-09 01:34 21.05668 -72.04388 37045 ft 487 kts 125°
2026-05-09 01:34 21.01663 -71.98544 37039 ft 487 kts 125°
2026-05-09 01:35 20.97651 -71.92697 37045 ft 487 kts 125°
2026-05-09 01:35 20.93644 -71.86863 37038 ft 487 kts 125°
2026-05-09 01:36 20.89653 -71.81057 37038 ft 487 kts 125°
2026-05-09 01:36 20.85636 -71.75221 37045 ft 487 kts 125°
2026-05-09 01:37 20.81617 -71.69386 37042 ft 487 kts 125°
2026-05-09 01:37 20.77599 -71.63560 37040 ft 487 kts 125°
2026-05-09 01:38 20.74247 -71.58704 37040 ft 488 kts 125°
2026-05-09 01:38 20.70247 -71.52914 37041 ft 488 kts 125°
2026-05-09 01:39 20.66225 -71.47099 37045 ft 488 kts 125°
2026-05-09 01:39 20.62194 -71.41277 37040 ft 488 kts 125°
2026-05-09 01:40 20.58149 -71.35439 37043 ft 488 kts 125°
2026-05-09 01:40 20.54143 -71.29664 37043 ft 488 kts 125°
2026-05-09 01:41 20.50079 -71.23810 37041 ft 488 kts 125°
2026-05-09 01:41 20.46071 -71.18041 37043 ft 488 kts 125°
2026-05-09 01:42 20.41934 -71.12284 37036 ft 489 kts 131°
2026-05-09 01:42 20.36818 -71.07531 37052 ft 489 kts 142°
2026-05-09 01:43 20.31401 -71.03121 37048 ft 490 kts 142°
2026-05-09 01:43 20.26051 -70.98729 37041 ft 490 kts 141°
2026-05-09 01:44 20.20670 -70.94250 37044 ft 490 kts 141°
2026-05-09 01:44 20.15309 -70.89772 37053 ft 490 kts 141°
2026-05-09 01:45 20.09985 -70.85329 37041 ft 490 kts 141°
2026-05-09 01:45 20.04587 -70.80831 37042 ft 490 kts 141°
2026-05-09 01:46 19.99252 -70.76392 37041 ft 490 kts 141°
2026-05-09 01:46 19.93893 -70.71936 37032 ft 490 kts 141°
2026-05-09 01:47 19.88528 -70.67479 37029 ft 489 kts 141°
2026-05-09 01:47 19.83205 -70.63059 37019 ft 489 kts 141°
2026-05-09 01:48 19.77874 -70.58594 37018 ft 488 kts 137°
2026-05-09 01:48 19.73453 -70.53181 37019 ft 485 kts 121°
2026-05-09 01:49 19.69889 -70.47108 37018 ft 485 kts 120°
2026-05-09 01:49 19.66356 -70.41027 37025 ft 485 kts 121°
2026-05-09 01:50 19.62778 -70.34960 37033 ft 484 kts 121°
2026-05-09 01:50 19.59177 -70.28916 37034 ft 485 kts 121°
2026-05-09 01:51 19.55596 -70.22923 37040 ft 484 kts 121°
2026-05-09 01:51 19.51986 -70.16888 37045 ft 485 kts 121°
2026-05-09 01:52 19.48377 -70.10857 37046 ft 484 kts 121°
2026-05-09 01:52 19.44765 -70.04824 37051 ft 484 kts 121°
2026-05-09 01:53 19.41185 -69.98853 37052 ft 484 kts 121°
2026-05-09 01:53 19.37572 -69.92831 37052 ft 484 kts 121°
2026-05-09 01:54 19.33961 -69.86819 37051 ft 484 kts 121°
2026-05-09 01:54 19.30353 -69.80817 37048 ft 483 kts 121°
2026-05-09 01:55 19.26740 -69.74814 37055 ft 483 kts 121°
2026-05-09 01:55 19.23150 -69.68855 37054 ft 483 kts 121°
2026-05-09 01:56 19.19538 -69.62863 37050 ft 483 kts 121°
2026-05-09 01:56 19.15920 -69.56870 37052 ft 483 kts 121°
2026-05-09 01:57 19.12301 -69.50879 37049 ft 483 kts 121°
2026-05-09 01:57 19.08705 -69.44932 37053 ft 483 kts 121°
2026-05-09 01:58 19.05086 -69.38955 37053 ft 483 kts 121°
2026-05-09 01:58 19.01458 -69.32967 37054 ft 483 kts 121°
2026-05-09 01:59 18.97831 -69.26987 37057 ft 483 kts 121°
2026-05-09 01:59 18.94201 -69.21008 37056 ft 484 kts 121°
2026-05-09 02:00 18.90596 -69.15074 37056 ft 484 kts 121°
2026-05-09 02:00 18.86951 -69.09083 37059 ft 483 kts 121°
2026-05-09 02:01 18.83316 -69.03112 37059 ft 483 kts 121°
2026-05-09 02:01 18.79686 -68.97156 37057 ft 483 kts 121°
2026-05-09 02:02 18.76069 -68.91225 37067 ft 483 kts 121°
2026-05-09 02:02 18.72430 -68.85265 37067 ft 484 kts 121°
2026-05-09 02:03 18.68785 -68.79302 37066 ft 484 kts 121°
2026-05-09 02:03 18.65135 -68.73336 37065 ft 484 kts 121°
2026-05-09 02:04 18.61485 -68.67374 37061 ft 484 kts 121°
2026-05-09 02:04 18.57831 -68.61413 37069 ft 484 kts 121°
2026-05-09 02:05 18.54201 -68.55494 37069 ft 485 kts 121°
2026-05-09 02:05 18.50535 -68.49523 37073 ft 485 kts 121°
2026-05-09 02:06 18.46868 -68.43558 37075 ft 485 kts 121°
2026-05-09 02:07 18.41391 -68.34655 37070 ft 485 kts 121°
2026-05-09 02:07 18.37723 -68.28701 37065 ft 485 kts 121°
2026-05-09 02:08 18.34052 -68.22747 37062 ft 485 kts 121°
2026-05-09 02:08 18.30372 -68.16783 37055 ft 486 kts 121°
2026-05-09 02:09 18.26689 -68.10818 37051 ft 486 kts 121°
2026-05-09 02:09 18.23025 -68.04888 37052 ft 486 kts 120°
2026-05-09 02:09 18.21455 -68.01767 37045 ft 482 kts 109°
2026-05-09 02:10 18.20388 -67.98434 37055 ft 479 kts 101°
2026-05-09 02:10 18.19630 -67.91547 37062 ft 473 kts 88°
2026-05-09 02:11 18.19512 -67.84627 37051 ft 473 kts 88°
2026-05-09 02:11 18.19386 -67.77701 37049 ft 474 kts 88°
2026-05-09 02:12 18.19218 -67.70778 37053 ft 474 kts 89°
2026-05-09 02:12 18.19029 -67.63892 37054 ft 474 kts 89°
2026-05-09 02:13 18.18832 -67.56978 37051 ft 474 kts 89°
2026-05-09 02:13 18.18634 -67.50047 37052 ft 474 kts 89°
2026-05-09 02:14 18.18437 -67.43169 37053 ft 474 kts 88°
2026-05-09 02:14 18.18234 -67.36202 37055 ft 473 kts 89°
2026-05-09 02:15 18.18032 -67.29330 37055 ft 473 kts 89°
2026-05-09 02:15 18.17826 -67.22420 37057 ft 473 kts 89°
2026-05-09 02:16 18.17618 -67.15514 37064 ft 473 kts 89°
2026-05-09 02:16 18.17409 -67.08648 37062 ft 473 kts 89°
2026-05-09 02:17 18.17196 -67.01753 37070 ft 472 kts 89°
2026-05-09 02:17 18.16981 -66.94849 37066 ft 472 kts 89°
2026-05-09 02:18 18.16763 -66.87944 37070 ft 473 kts 89°
2026-05-09 02:18 18.16543 -66.81038 37074 ft 473 kts 89°
2026-05-09 02:19 18.16320 -66.74130 37059 ft 473 kts 89°
2026-05-09 02:19 18.16095 -66.67263 37061 ft 472 kts 89°
2026-05-09 02:20 18.15867 -66.60335 37055 ft 472 kts 89°
2026-05-09 02:20 18.15639 -66.53490 37063 ft 471 kts 89°
2026-05-09 02:21 18.15406 -66.46602 37051 ft 471 kts 89°
2026-05-09 02:21 18.15172 -66.39726 37066 ft 470 kts 88°
2026-05-09 02:22 18.14938 -66.32907 37076 ft 470 kts 89°
2026-05-09 02:22 18.14699 -66.26037 37080 ft 471 kts 89°
2026-05-09 02:23 18.14458 -66.19159 37078 ft 471 kts 89°
2026-05-09 02:23 18.14213 -66.12271 37079 ft 471 kts 89°
2026-05-09 02:24 18.13967 -66.05403 37078 ft 471 kts 89°
2026-05-09 02:24 18.13720 -65.98569 37074 ft 471 kts 89°
2026-05-09 02:25 18.13468 -65.91678 37066 ft 471 kts 89°
2026-05-09 02:25 18.13214 -65.84800 37073 ft 471 kts 89°
2026-05-09 02:26 18.12958 -65.77920 37067 ft 471 kts 89°
2026-05-09 02:26 18.12701 -65.71083 37064 ft 471 kts 89°
2026-05-09 02:27 18.12441 -65.64191 37070 ft 471 kts 89°
2026-05-09 02:27 18.11612 -65.57362 37058 ft 479 kts 109°
2026-05-09 02:27 18.10011 -65.54281 37067 ft 486 kts 124°
2026-05-09 02:28 18.07644 -65.51727 37075 ft 491 kts 140°
2026-05-09 02:28 18.02133 -65.47563 37068 ft 493 kts 143°
2026-05-09 02:29 17.96478 -65.43469 37062 ft 494 kts 143°
2026-05-09 02:29 17.90853 -65.39327 37064 ft 494 kts 142°
2026-05-09 02:30 17.85245 -65.35131 37062 ft 495 kts 142°
2026-05-09 02:30 17.79648 -65.30926 37051 ft 495 kts 142°
2026-05-09 02:31 17.74080 -65.26746 37061 ft 495 kts 142°
2026-05-09 02:31 17.68473 -65.22544 37063 ft 495 kts 142°
2026-05-09 02:32 17.62869 -65.18348 37054 ft 495 kts 142°
2026-05-09 02:32 17.57255 -65.14150 37054 ft 495 kts 142°
2026-05-09 02:33 17.51696 -65.09995 37064 ft 495 kts 142°
2026-05-09 02:33 17.46080 -65.05801 37066 ft 495 kts 142°
2026-05-09 02:34 17.40461 -65.01607 37055 ft 495 kts 142°
2026-05-09 02:34 17.34861 -64.97432 37063 ft 495 kts 142°
2026-05-09 02:35 17.29279 -64.93273 37050 ft 495 kts 142°
2026-05-09 02:35 17.23658 -64.89088 37049 ft 495 kts 142°
2026-05-09 02:36 17.18052 -64.84917 37051 ft 495 kts 142°
2026-05-09 02:36 17.12439 -64.80744 37057 ft 495 kts 142°
2026-05-09 02:37 17.06827 -64.76576 37059 ft 495 kts 142°
2026-05-09 02:37 17.01254 -64.72439 37054 ft 494 kts 142°
2026-05-09 02:38 16.95650 -64.68283 37057 ft 494 kts 142°
2026-05-09 02:38 16.90039 -64.64124 37048 ft 494 kts 142°
2026-05-09 02:39 16.84445 -64.59981 37062 ft 494 kts 142°
2026-05-09 02:39 16.78841 -64.55833 37053 ft 493 kts 142°
2026-05-09 02:40 16.73283 -64.51723 37041 ft 493 kts 142°
2026-05-09 02:40 16.67778 -64.47655 37049 ft 493 kts 142°
2026-05-09 02:41 16.62224 -64.43553 37047 ft 493 kts 142°
2026-05-09 02:41 16.56553 -64.39368 37056 ft 493 kts 142°
2026-05-09 02:42 16.50963 -64.35246 37043 ft 493 kts 142°
2026-05-09 02:42 16.45325 -64.31092 37052 ft 493 kts 141°
2026-05-09 02:43 16.39766 -64.26999 37037 ft 493 kts 141°
2026-05-09 02:43 16.34169 -64.22881 37053 ft 493 kts 141°
2026-05-09 02:44 16.28581 -64.18771 37049 ft 493 kts 141°
2026-05-09 02:44 16.22976 -64.14654 37035 ft 493 kts 141°
2026-05-09 02:45 16.17378 -64.10543 37051 ft 493 kts 141°
2026-05-09 02:45 16.11819 -64.06465 37040 ft 493 kts 141°
2026-05-09 02:46 16.06222 -64.02361 37050 ft 492 kts 141°
2026-05-09 02:46 16.00609 -63.98248 37047 ft 492 kts 141°
2026-05-09 02:47 15.95018 -63.94155 37032 ft 492 kts 141°
2026-05-09 02:47 15.89424 -63.90062 37042 ft 492 kts 141°
2026-05-09 02:48 15.83861 -63.85994 37036 ft 492 kts 141°
2026-05-09 02:48 15.78268 -63.81908 37043 ft 491 kts 141°
2026-05-09 02:49 15.72677 -63.77825 37034 ft 491 kts 141°
2026-05-09 02:49 15.67089 -63.73748 37032 ft 491 kts 141°
2026-05-09 02:50 15.61493 -63.69668 37041 ft 491 kts 141°
2026-05-09 02:50 15.55943 -63.65624 37030 ft 491 kts 141°
2026-05-09 02:51 15.50392 -63.61612 37018 ft 480 kts 141°
2026-05-09 02:51 15.45000 -63.57721 37013 ft 465 kts 141°
2026-05-09 02:52 15.39786 -63.53929 37014 ft 451 kts 141°
2026-05-09 02:52 15.34730 -63.50249 37014 ft 437 kts 141°
2026-05-09 02:53 15.29857 -63.46705 37014 ft 424 kts 141°
2026-05-09 02:53 15.25111 -63.43257 37016 ft 410 kts 141°
2026-05-09 02:54 15.20885 -63.40187 37017 ft 397 kts 140°
2026-05-09 02:54 15.20323 -63.39779 37016 ft 396 kts 140°
2026-05-09 02:55 15.18546 -63.38498 37013 ft 390 kts 141°
2026-05-09 02:56 15.14155 -63.35345 36740 ft 390 kts 141°
2026-05-09 02:56 15.11952 -63.33678 36290 ft 400 kts 140°
2026-05-09 02:56 15.09584 -63.31985 35567 ft 427 kts 142°
2026-05-09 02:56 15.07102 -63.30203 35293 ft 438 kts 140°
2026-05-09 02:57 15.04631 -63.28379 35536 ft 436 kts 140°
2026-05-09 02:57 15.02153 -63.26563 35765 ft 434 kts 141°
2026-05-09 02:57 14.99719 -63.24742 35975 ft 430 kts 136°
2026-05-09 02:57 14.97505 -63.22683 36209 ft 425 kts 132°
2026-05-09 02:58 14.95407 -63.20608 36375 ft 425 kts 131°
2026-05-09 02:58 14.93279 -63.18471 36477 ft 426 kts 131°
2026-05-09 02:58 14.91157 -63.16336 36603 ft 426 kts 131°
2026-05-09 02:58 14.89024 -63.14199 36733 ft 427 kts 131°
2026-05-09 02:59 14.86887 -63.12070 36848 ft 427 kts 131°
2026-05-09 02:59 14.84740 -63.09938 36972 ft 428 kts 131°
2026-05-09 02:59 14.82586 -63.07807 37025 ft 430 kts 132°
2026-05-09 03:00 14.78249 -63.03525 37048 ft 437 kts 132°
2026-05-09 03:00 14.73786 -62.99125 37041 ft 444 kts 132°
2026-05-09 03:01 14.69301 -62.94708 37036 ft 451 kts 132°
2026-05-09 03:01 14.64723 -62.90201 37034 ft 458 kts 132°
2026-05-09 03:02 14.60075 -62.85628 37033 ft 464 kts 132°
2026-05-09 03:02 14.55404 -62.81036 37033 ft 470 kts 132°
2026-05-09 03:03 14.50652 -62.76366 37029 ft 476 kts 132°
2026-05-09 03:03 14.45806 -62.71607 37028 ft 482 kts 133°
2026-05-09 03:04 14.40933 -62.66825 37026 ft 486 kts 133°
2026-05-09 03:04 14.36028 -62.62015 37026 ft 488 kts 133°
2026-05-09 03:05 14.31091 -62.57177 37022 ft 489 kts 133°
2026-05-09 03:05 14.26154 -62.52342 37017 ft 490 kts 133°
2026-05-09 03:06 14.21243 -62.47535 37017 ft 490 kts 133°
2026-05-09 03:06 14.16298 -62.42698 37018 ft 489 kts 133°
2026-05-09 03:07 14.11374 -62.37883 37018 ft 489 kts 133°
2026-05-09 03:07 14.06450 -62.33074 37001 ft 480 kts 133°
2026-05-09 03:07 14.04055 -62.30739 36944 ft 467 kts 133°
2026-05-09 03:08 14.01739 -62.28482 36559 ft 462 kts 133°
2026-05-09 03:08 13.99427 -62.26226 36196 ft 455 kts 133°
2026-05-09 03:08 13.97148 -62.24002 35836 ft 450 kts 133°
2026-05-09 03:08 13.94894 -62.21802 35438 ft 447 kts 132°
2026-05-09 03:09 13.92632 -62.19593 34962 ft 445 kts 132°
2026-05-09 03:09 13.90397 -62.17414 34498 ft 438 kts 132°
2026-05-09 03:09 13.88209 -62.15283 33985 ft 431 kts 132°
2026-05-09 03:09 13.86048 -62.13177 33189 ft 430 kts 132°
2026-05-09 03:10 13.83901 -62.11084 32455 ft 427 kts 132°
2026-05-09 03:10 13.81748 -62.08986 31736 ft 424 kts 131°
2026-05-09 03:10 13.79608 -62.06901 30999 ft 423 kts 131°
2026-05-09 03:10 13.77471 -62.04819 30186 ft 425 kts 131°
2026-05-09 03:11 13.75326 -62.02730 29291 ft 425 kts 131°
2026-05-09 03:11 13.73175 -62.00637 28387 ft 425 kts 131°
2026-05-09 03:11 13.71030 -61.98550 27515 ft 423 kts 131°
2026-05-09 03:11 13.68893 -61.96473 26666 ft 421 kts 131°
2026-05-09 03:12 13.66767 -61.94407 25842 ft 419 kts 131°
2026-05-09 03:12 13.64660 -61.92362 25044 ft 417 kts 131°
2026-05-09 03:12 13.62585 -61.90346 24272 ft 414 kts 131°
2026-05-09 03:12 13.60476 -61.88297 23473 ft 410 kts 131°
2026-05-09 03:13 13.56391 -61.84330 21725 ft 405 kts 132°
2026-05-09 03:13 13.54352 -61.82350 20868 ft 402 kts 133°
2026-05-09 03:13 13.52321 -61.80378 20051 ft 400 kts 133°
2026-05-09 03:14 13.50306 -61.78422 19251 ft 398 kts 134°
2026-05-09 03:14 13.48300 -61.76476 18469 ft 396 kts 134°
2026-05-09 03:14 13.46296 -61.74531 17608 ft 394 kts 134°
2026-05-09 03:14 13.44307 -61.72604 16761 ft 392 kts 135°
2026-05-09 03:15 13.42337 -61.70694 15987 ft 388 kts 135°
2026-05-09 03:15 13.40410 -61.68828 15282 ft 383 kts 135°
2026-05-09 03:15 13.38483 -61.66962 14595 ft 378 kts 135°
2026-05-09 03:15 13.36584 -61.65122 13923 ft 374 kts 136°
2026-05-09 03:16 13.34702 -61.63300 13276 ft 368 kts 135°
2026-05-09 03:16 13.32861 -61.61518 12755 ft 358 kts 136°
2026-05-09 03:16 13.31073 -61.59788 12210 ft 351 kts 135°
2026-05-09 03:16 13.29309 -61.58081 11676 ft 344 kts 135°
2026-05-09 03:17 13.27583 -61.56411 11158 ft 340 kts 135°
2026-05-09 03:17 13.25845 -61.54728 10656 ft 350 kts 135°
2026-05-09 03:17 13.24048 -61.52988 10157 ft 356 kts 135°
2026-05-09 03:17 13.22252 -61.51252 9611 ft 356 kts 135°
2026-05-09 03:18 13.20482 -61.49541 9068 ft 352 kts 135°
2026-05-09 03:18 13.18710 -61.47830 8522 ft 348 kts 135°
2026-05-09 03:18 13.16958 -61.46136 7990 ft 344 kts 135°
2026-05-09 03:18 13.15223 -61.44460 7459 ft 340 kts 134°
2026-05-09 03:19 13.13835 -61.43119 7045 ft 337 kts 135°
2026-05-09 03:19 13.12124 -61.41466 6534 ft 334 kts 135°
2026-05-09 03:19 13.10443 -61.39842 6001 ft 332 kts 135°
2026-05-09 03:19 13.08780 -61.38236 5465 ft 325 kts 135°
2026-05-09 03:20 13.07149 -61.36661 4914 ft 318 kts 134°
2026-05-09 03:20 13.05555 -61.35124 4385 ft 312 kts 134°
2026-05-09 03:20 13.03993 -61.33617 3842 ft 306 kts 134°
2026-05-09 03:20 13.02457 -61.32133 3336 ft 299 kts 132°
2026-05-09 03:21 13.01322 -61.30492 3133 ft 277 kts 111°
2026-05-09 03:21 13.00628 -61.28696 3063 ft 258 kts 109°
2026-05-09 03:21 13.00022 -61.27060 3031 ft 240 kts 108°
2026-05-09 03:21 12.99457 -61.25551 3033 ft 222 kts 108°
2026-05-09 03:22 12.98963 -61.24118 3021 ft 203 kts 97°
2026-05-09 03:22 12.99069 -61.22789 3038 ft 177 kts 69°
2026-05-09 03:22 12.99643 -61.21767 3029 ft 155 kts 51°
2026-05-09 03:22 13.00457 -61.21026 3074 ft 168 kts 33°
2026-05-09 03:23 13.01525 -61.20530 3059 ft 162 kts 25°
2026-05-09 03:23 13.02500 -61.20142 3092 ft 137 kts 27°
2026-05-09 03:23 13.03309 -61.19792 3015 ft 126 kts 27°
2026-05-09 03:23 13.04129 -61.19456 2816 ft 125 kts 24°
2026-05-09 03:24 13.04955 -61.19201 2625 ft 125 kts 25°
2026-05-09 03:24 13.05775 -61.18867 2374 ft 130 kts 27°
2026-05-09 03:24 13.06634 -61.18555 2174 ft 132 kts 28°
2026-05-09 03:24 13.07491 -61.18240 2005 ft 130 kts 23°
2026-05-09 03:25 13.08338 -61.17938 1780 ft 130 kts 27°
2026-05-09 03:25 13.09170 -61.17595 1592 ft 127 kts 29°
2026-05-09 03:25 13.09986 -61.17224 1312 ft 130 kts 27°
2026-05-09 03:25 13.10825 -61.16884 979 ft 131 kts 26°
2026-05-09 03:26 13.11672 -61.16575 644 ft 128 kts 25°
2026-05-09 03:26 13.12472 -61.16244 469 ft 121 kts 26°
2026-05-09 03:26 13.13237 -61.15931 315 ft 115 kts 25°
2026-05-09 03:26 13.13953 -61.15650 240 ft 116 kts 25°
2026-05-09 03:27 13.14750 -61.15368 235 ft 127 kts 22°
2026-05-09 03:27 13.15616 -61.15035 153 ft 138 kts 24°
2026-05-09 03:27 13.16487 -61.14690 93 ft 123 kts 27°
2026-05-09 03:27 13.17064 -61.14496 62 ft 22 kts 357°
2026-05-09 03:28 13.17169 -61.14463 58 ft 6 kts 75°
2026-05-09 03:28 13.17169 -61.14458 55 ft 0 kts 91°
2026-05-09 03:28 13.17168 -61.14457 55 ft 0 kts 109°
2026-05-09 03:29 13.17167 -61.14457 55 ft 0 kts 127°
2026-05-09 03:29 13.17128 -61.14425 58 ft 3 kts 165°
2026-05-09 03:29 13.17114 -61.14433 57 ft 17 kts 207°
2026-05-09 03:29 13.16866 -61.14539 67 ft 41 kts 201°
2026-05-09 03:30 13.16725 -61.14594 67 ft 10 kts 200°
2026-05-09 03:30 13.16646 -61.14624 68 ft 13 kts 201°
2026-05-09 03:30 13.16565 -61.14657 83 ft 11 kts 201°
2026-05-09 03:30 13.16482 -61.14691 89 ft 15 kts 200°
2026-05-09 03:31 13.16379 -61.14730 90 ft 0 kts 202°
2026-05-09 03:31 13.16378 -61.14730 90 ft 1 kts 201°
2026-05-09 03:31 13.16377 -61.14731 90 ft 0 kts 201°
2026-05-09 03:32 13.16376 -61.14731 91 ft 1 kts 201°
2026-05-09 03:32 13.16374 -61.14732 91 ft 0 kts 201°
2026-05-09 03:32 13.16373 -61.14733 91 ft 0 kts 201°
2026-05-09 03:33 13.16372 -61.14733 93 ft 0 kts 201°
2026-05-09 03:33 13.16371 -61.14733 93 ft 1 kts 200°
2026-05-09 03:33 13.16369 -61.14734 93 ft 1 kts 200°
2026-05-09 03:33 13.16366 -61.14735 91 ft 1 kts 200°
2026-05-09 03:34 13.16364 -61.14736 91 ft 0 kts 200°
2026-05-09 03:34 13.16363 -61.14736 91 ft 1 kts 200°
2026-05-09 03:34 13.16362 -61.14737 91 ft 0 kts 200°
2026-05-09 03:35 13.16361 -61.14737 91 ft 0 kts 199°
2026-05-09 03:36 13.16360 -61.14737 91 ft 0 kts 199°
2026-05-09 03:36 13.16359 -61.14737 91 ft 0 kts 199°
2026-05-09 03:36 13.16359 -61.14738 91 ft 0 kts 199°
2026-05-09 03:36 13.16358 -61.14738 91 ft 0 kts 199°
2026-05-09 03:37 13.16357 -61.14738 91 ft 0 kts 199°
2026-05-09 03:38 13.16357 -61.14740 92 ft 0 kts 235°
2026-05-09 03:38 13.16175 -61.14841 100 ft 0 kts 354°
2026-05-09 03:39 13.16176 -61.14841 101 ft 0 kts 11°
2026-05-09 03:39 13.16346 -61.15006 99 ft 0 kts 311°
2026-05-09 03:39 13.16388 -61.14969 98 ft 0 kts 311°
2026-05-09 03:40 13.16389 -61.14970 98 ft 1 kts 311°
2026-05-09 03:40 13.16392 -61.14973 98 ft 0 kts 311°
2026-05-09 03:42 13.16391 -61.14973 98 ft 0 kts 311°
2026-05-09 03:42 13.16390 -61.14972 98 ft 0 kts 311°
2026-05-09 03:42 13.16389 -61.14971 98 ft 0 kts 288°
2026-05-09 03:42 13.16389 -61.14970 98 ft 0 kts 310°
2026-05-09 03:43 13.16390 -61.14971 98 ft 1 kts 309°
2026-05-09 03:44 13.16580 -61.15101 124 ft 0 kts 167°